Location: Unspecified
(0.0000°N, 0.0000°E)
Time: 02:35:20
(UTC+00:00)

N. Korean satellite - Pass Details

Date: 24 February 2021
Orbit: 451 x 503 km, 97.2° (Epoch: 24 February)

Event Time Altitude Azimuth Distance (km) Brightness Sun altitude
Rises 05:36:12 0° 348° (NNW) 2,512 10.0 -9.1°
Reaches altitude 10° 05:38:33 10° 332° (NNW) 1,648 8.9 -8.5°
Maximum altitude 05:41:19 22° 281° (W) 1,113 7.8 -7.9°
Drops below altitude 10° 05:44:09 10° 229° (SW) 1,677 8.9 -7.2°
Sets 05:46:35 0° 213° (SSW) 2,571 10.0 -6.6°
